This is the latest recevied weather packets stored in our database for station/object N7IGG. If no packets are shown the sender has not sent any weather packets the latest 10 day(s).
| Time | Temp. | Humidity | Pressure | Rain* | Wind** | Luminosity | Snow |
|---|---|---|---|---|---|---|---|
| 1777685803 | 18.89° C | 61% | 1014.4 hPa | 0 mm | - | 44 W/m² | - |
| 1777685498 | 19.44° C | 59% | 1014.5 hPa | 0 mm | - | 61 W/m² | - |
| 1777685196 | 19.44° C | 57% | 1014.5 hPa | 0 mm | - | 84 W/m² | - |
| 1777684894 | 20° C | 56% | 1014.7 hPa | 0 mm | - | 97 W/m² | - |
| 1777684590 | 20° C | 56% | 1014.7 hPa | 0 mm | - | 160 W/m² | - |
| 1777684286 | 20° C | 56% | 1014.6 hPa | 0 mm | - | 128 W/m² | - |
| 1777683984 | 20° C | 56% | 1014.7 hPa | 0 mm | - | 138 W/m² | - |
| 1777683680 | 20.56° C | 55% | 1014.7 hPa | 0 mm | - | 128 W/m² | - |
| 1777683378 | 20.56° C | 54% | 1014.7 hPa | 0 mm | - | 324 W/m² | - |
| 1777683075 | 20° C | 55% | 1014.7 hPa | 0 mm | - | 191 W/m² | - |
| 1777682771 | 20° C | 55% | 1014.9 hPa | 0 mm | - | 226 W/m² | - |
| 1777682468 | 20° C | 55% | 1014.6 hPa | 0 mm | - | 133 W/m² | - |
| 1777682166 | 20.56° C | 55% | 1014.6 hPa | 0 mm | - | 158 W/m² | - |
| 1777681863 | 21.11° C | 54% | 1014.6 hPa | 0 mm | - | 207 W/m² | - |
| 1777681559 | 20.56° C | 55% | 1014.6 hPa | 0 mm | - | 445 W/m² | - |
| 1777681256 | 21.11° C | 54% | 1014.5 hPa | 0 mm | - | 267 W/m² | - |
| 1777680954 | 21.11° C | 54% | 1014.7 hPa | 0 mm | - | 480 W/m² | - |
| 1777680651 | 21.67° C | 53% | 1014.5 hPa | 0 mm | - | 526 W/m² | - |
| 1777680349 | 21.67° C | 53% | 1014.5 hPa | 0 mm | - | 295 W/m² | - |
| 1777680046 | 21.11° C | 56% | 1014.6 hPa | 0 mm | - | 530 W/m² | - |
| 1777679742 | 20.56° C | 55% | 1014.7 hPa | 0 mm | - | 526 W/m² | - |
| 1777679438 | 21.11° C | 57% | 1014.4 hPa | 0 mm | - | 449 W/m² | - |
| 1777679134 | 20.56° C | 56% | 1014.5 hPa | 0 mm | - | 410 W/m² | - |
| 1777678832 | 20.56° C | 55% | 1014.5 hPa | 0 mm | - | 400 W/m² | - |
| 1777678529 | 21.11° C | 54% | 1014.6 hPa | 0 mm | - | 349 W/m² | - |
* Rain latest hour (hover to see other rain measurements)
** Current wind speed in m/s (hover to see current wind gust speed)